www.pogodaiklimat.ru

Погода и климат >> Архив погоды >> Аргентина >> Эсейса


ПОГОДА в Эсейсе

  • Прогноз погоды в Эсейсе
  • Монитор погоды в Эсейсе

АРХИВ ПОГОДЫ в Эсейсе

Время (UTC), дата Ветер
(напр.,м/с)
 
Видим.   Явления Облачность Т
(С)
Тd
(С)
f
(%)
Тe
(С)
Тes
(С)
Комфортность P
(гПа)
Po
(гПа)
Тmin
(С)
Tmax
(С)
R
(мм)
R24
(мм)
S
(см)
06 17.07 С 1 10 км ясно +8.9 +5.4 79 +8 +8 1024.6 1022.2
09 17.07 С 3 10 км ясно +9.9 +3.0 62 +8 +8 1023.9 1021.6
12 17.07 С 4 10 км 1/0
[Ci fib]
+10.4 +4.9 69 +8 +9 1024.2 1021.7 +8.7 +11.3
15 17.07 С 6 10 км 3/0
[Cs]
+14.6 +4.6 51 +13 +15 1023.0 1020.6
18 17.07 С 7 10 км 8/0
[Cs]
+16.4 +4.9 46 +15 +16 1020.1 1017.7
21 17.07 СВ 4 10 км 8/0
[Cs]
+15.2 +6.9 58 +14 +14 1018.7 1016.4
00 18.07 С 4 10 км 9/0
[Ac und Cs]
+15.2 +6.4 56 +14 +14 1018.6 1016.2 +10.2 +17.0
03 18.07 С 5 10 км 6/0
[Cs]
+14.2 +7.6 64 +13 +13 1018.0 1015.6
06 18.07 С 4 10 км 4/0
[Cs]
+13.3 +7.7 69 +12 +12 1018.2 1015.7
09 18.07 С 4 10 км 9/9 600 м
[Sc]
+12.6 +7.1 69 +11 +11 1018.2 1015.8
12 18.07 С 3 10 км 9/0
[Ac und Cs]
+12.3 +7.4 72 +11 +11 1020.3 1018.0 +11.8 +15.3
15 18.07 С 3 10 км 9/0
[Ac und]
+14.4 +8.1 66 +14 +16 1021.4 1019.0
18 18.07 З 2 10 км 8/0
[Ac und]
+15.7 +9.4 66 +16 +18 1020.3 1018.0
21 18.07 Ю 2 9000 м в посл. час ливневой дождь туман 10/3 1380 м
[Sc Ac As]
+13.3 +9.6 78 +13 +13 1020.7 1018.4
00 19.07 Ю 2 10 км {ливн. осадки} 10/0
[Ac As]
+11.9 +9.6 86 +11 +11 1022.5 1020.1 +11.5 +15.7 0.0
03 19.07 В 4 10 км в посл. час дождь 10/3 700 м
[Sc Ac As]
+11.6 +9.6 88 +9 +9 1022.0 1019.6
06 19.07 штиль 0 10 км {дождь} 9/0
[Ac cast Cc]
+10.5 +9.1 91 +10 +10 1021.1 1018.8 0.0
09 19.07 СВ 3 3000 м дымка 6/0
[Ac As Cc]
+8.7 +7.9 95 +6 +6 1018.4 1016.0
12 19.07 штиль 0 100 м туман 6/6 60 м
[St]
+6.9 +6.9 100 +6 +6 1019.4 1016.9 +6.7 +12.0 0.0
15 19.07 Ю 1 1500 м в посл. час туман туман 6/6 120 м
[St]
+11.0 +10.0 94 +11 +14 1018.8 1016.4
18 19.07 СВ 1 4000 м мгла {туман} 6/0
[Cs]
+16.4 +12.7 79 +17 +22 1015.3 1012.9
21 19.07 СВ 2 10 км 6/0
[Cs]
+18.0 +11.3 65 +19 +19 1014.4 1012.0
00 20.07 СВ 2 6000 м дымка 3/0
[Cs]
+15.0 +11.9 82 +15 +15 1014.2 1011.8 +6.7 +19.2
03 20.07 СВ 2 5000 м дымка ясно +12.6 +11.5 93 +12 +12 1014.6 1012.2
06 20.07 СВ 1 100 м туман местами 3/3 30 м
[St]
+11.0 +10.0 94 +11 +11 1014.7 1012.2
09 20.07 С 2 3000 м местами туман поземный туман 6/0
[Ac As]
+12.6 +11.1 91 +12 +12 1013.9 1011.4
12 20.07 СВ 1 5000 м дымка {туман} 9/0 1500 м
[Ac As Cs]
+14.2 +12.9 92 +14 +15 1014.1 1011.7 +10.4 +15.2
15 20.07 СВ 4 8000 м мгла 10/5 1440 м
[Sc Ac As]
+18.0 +14.4 79 +18 +19 1013.5 1011.0
18 20.07 СВ 4 10 км 10/5 930 м
[Sc Ac As]
+19.3 +14.7 75 +21 +21 комфорт 1009.3 1006.9
21 20.07 СВ 5 10 км 10/0 2000 м
[Ac As]
+18.4 +14.8 80 +19 +19 1007.2 1004.8
00 21.07 В 6 10 км 9/0
[Ac und Cs]
+18.2 +15.5 84 +18 +18 1005.5 1003.0 +14.3 +19.7
03 21.07 С 7 10 км 9/1 1470 м
[Sc Ac As Cs]
+20.2 +15.2 73 +22 +22 комфорт 1003.3 1001.0
06 21.07 С 6 10 км 10/0 1500 м
[Ac As Cs]
+20.9 +15.4 71 +24 +24 комфорт 1002.0 999.7
09 21.07 С 5 10 км 9/0 1500 м
[Ac As Cs]
+20.8 +15.7 73 +24 +24 комфорт 1000.7 998.4
12 21.07 С 5 10 км 9/1 1500 м
[Cu med, cong Ac As Cs]
+22.0 +16.3 70 +26 +26 душно 1000.6 998.2 +18.2 +22.0
15 21.07 С 9 10 км 9/0
[Ac cast Cs]
+25.5 +16.9 59 +29 +30 душно 1000.1 997.8
18 21.07 С 8 10 км 10/0 2000 м
[Ac cast Cs]
+26.8 +16.0 52 +30 +31 душно 998.8 996.5
21 21.07 Ю 6 3000 м гроза, ливневой дождь туман 10/10 180 м
[Cb cap]
+18.8 +17.7 93 +20 +20 1001.7 999.4
00 22.07 Ю 4 10 км зарница {гроза, дождь} 10/10 1470 м
[Cb cap]
+13.6 +8.7 72 +12 +12 1006.6 1004.2 +13.4 +28.1 10
03 22.07 Ю 4 10 км 10/0 2000 м
[Ac cast]
+12.2 +4.9 61 +10 +10 1011.0 1008.6
06 22.07 Ю 2 10 км 6/0
[Ac trans]
+10.8 +4.7 66 +10 +10 1013.7 1011.3
09 22.07 Ю 2 10 км ясно +7.3 +5.8 90 +5 +5 1014.1 1011.7
12 22.07 Ю 2 10 км 10/0
[Ac As Cs]
+8.2 +4.4 77 +7 +8 1017.4 1015.0 +6.3 +13.6 10
15 22.07 Ю 4 10 км 9/0
[Ac As Cs]
+12.4 +3.2 53 +11 +14 1018.8 1016.4
18 22.07 Ю 4 10 км 10/0
[Ac As Cs]
+13.8 +1.7 44 +13 +15 1019.5 1017.2
21 22.07 Ю 2 10 км 9/0
[Ac As Cs]
+12.5 +3.9 56 +12 +12 1020.5 1018.0
00 23.07 Ю 2 10 км 6/0
[Cs]
+9.6 +2.3 60 +9 +9 1022.2 1019.7 +8.0 +14.6
03 23.07 Ю 1 10 км 9/0
[Cs]
+8.2 +5.1 81 +7 +7 1023.9 1021.4
12 23.07 ЮВ 3 10 км 9/0
[Cs]
+5.9 +5.2 95 +3 +3 1025.7 1023.2 +4.3 +9.6
15 23.07 Ю 4 10 км 10/1 400 м
[St Cs]
+9.1 +7.0 87 +6 +9 1027.0 1024.5
18 23.07 Ю 4 10 км 10/0
[Ac As Cs]
+10.7 +5.5 70 +8 +10 1026.0 1023.6
21 23.07 Ю 4 10 км 10/0
[Ac As Cs]
+10.0 +5.7 75 +8 +8 1025.8 1023.3
00 24.07 Ю 3 10 км 10/0
[Ac As]
+8.6 +3.8 72 +7 +7 1027.4 1024.9 +5.7 +11.0
03 24.07 ЮЗ 2 10 км 8/0 2000 м
[Ac As]
+7.6 +4.4 80 +6 +6 1029.6 1027.2

 

Местоположение метеостанции Эсейса (Аргентина): широта -34.81 долгота -58.53 высота над уровнем моря 20 м.

В архиве по умолчанию представлена погода в Эсейсе за последнюю неделю. Архивные данные за месяц целиком и за предыдущие месяцы, начиная с января 2011 года, Вы можете получить, выбрав интересующий диапазон дат из раскрывающегося списка и нажав кнопку "Ввод!".


*Определитесь, кто Вы:
робот инопланетянин человек

Внимание! Время в таблицах - всемирное. Для получения местного времени необходимо прибавить поправку, которая равна -3 ч.

Смотрите также архив погоды в соседних городах и на ближайших метеорологических станциях:

Погода в Буэнос-Айресе (Аргентина) (26 км)
Погода в Буэнос-Айресе аэропорт (Аргентина) (30 км)
Погода в Ла-Плате (Аргентина) (60 км)
Погода в Колонии (Уругвай) (76 км)
Погода в Лас Флоресе (Аргентина) (149 км)
Погода в Мерседесе (Уругвай) (179 км)
Погода в Долоресе (Аргентина) (183 км)
Погода в Гуалегуайчу (Аргентина) (201 км)
Погода в Мелилье (Уругвай) (208 км)
Погода в Прадо (Уругвай) (213 км)

Пояснения к столбцам:

Ветер - указаны скорость ветра в м/с - средняя за 10 мин, порывы в срок и между сроками (в фигурных скобках) и направление, откуда дует ветер: С - северный, СВ - северо-восточный, В - восточный, ЮВ - юго-восточный, Ю - южный, ЮЗ - юго-западный, З - западный, СЗ - северо-западный.
Видимость - горизонтальная дальность видимости в метрах или километрах. При видимости от 1 до 10 км при отсутствии осадков обычно наблюдается дымка, при ухудшении видимости до 1 км и менее - туман. В сухую погоду видимость может ухудшаться дымом, пылью или мглою.
Явления - указаны атмосферные явления, наблюдавшиеся в срок или в последний час перед сроком; фигурными скобками обозначены явления, наблюдавшиеся между сроками (за 1-3 часа до срока); квадратными скобками обозначены град или гололедные отложения с указанием их диаметра в мм.
Облачность - указаны через наклонную черту общая и нижняя облачность в баллах и высота нижней границы облаков в метрах; квадратными скобками обозначены формы облаков: Ci - перистые, Cs - перисто-слоистые, Cc - перисто-кучевые, Ac - высококучевые, As - высокослоистые, Sc - слоисто-кучевые, Ns - слоисто-дождевые, Cu - кучевые, Cb - кучево-дождевые. Подробнее классификацию облаков см. в Атласе облаков (PDF).
T - Температура воздуха - температура, измеренная на высоте 2 м над землей.
Td - Температура точки росы - температура, при понижении до которой содержащийся в воздухе водяной пар достигнет насыщения.
f - Относительная влажность воздуха - влажноcть воздуха, измеренная на высоте 2 м над землей.
Te - Эффективная температура - температура, которую ощущает одетый по сезону человек в тени. Характеристика душности погоды. При расчете учитывается влияние влажности воздуха и скорости ветра на теплоощущения человека.
Tes - Эффективная температура на солнце - температура, которую ощущает человек, с поправкой на солнечный нагрев. Характеристика знойности погоды. Зависит от высоты солнца над горизонтом, облачности и скорости ветра. Ночью, в пасмурную погоду, а также при ветре 12 м/с и более поправка равна нулю.
P - Атмосферное давление - приведенное к уровню моря атмосферное давление.
Po - Атмосферное давление - измеренное на уровне метеостанции атмосферное давление.
Tmin - Минимальная температура - минимум температуры воздуха на высоте 2 м над землей.
Tmax - Максимальная температура - максимум температуры воздуха на высоте 2 м над землей.
R - Количество осадков - Количество выпавших осадков за период времени, мм. При наведении курсора мыши на число - период времени, за который выпало указанное количество осадков.
R24 - Количество осадков - Количество выпавших осадков за 24 часа, мм.
S - Снежный покров - Высота снежного покрова, см. При наведении курсора мыши на число - состояние снежного покрова и степень покрытия местности в баллах.